Radiation Dose at Monitoring Post of Fukushima Daini Nuclear Power Station
Date,Time,MP-1(microSv/h),MP-2(microSv/h),MP-3(microSv/h),MP-4(microSv/h),MP-5(microSv/h),MP-6(microSv/h),MP-7(microSv/h),Wind Direction,Wind Velocity(m/s),Rain
2013/06/26,00:00,0.9,0.6,0.9,0.9,0.8,0.4,0.3,south-southwest,3.6,No
2013/06/26,00:10,0.9,0.7,0.9,0.9,0.8,0.4,0.3,south-southwest,3.7,No
2013/06/26,00:20,0.9,0.6,0.9,0.9,0.8,0.4,0.3,south-southwest,3.4,No
2013/06/26,00:30,0.9,0.6,0.9,0.9,0.8,0.4,0.3,south-southwest,4.2,No
2013/06/26,00:40,0.9,0.6,0.9,0.9,0.8,0.4,0.3,south-southwest,3.7,No
2013/06/26,00:50,0.9,0.6,0.9,0.9,0.8,0.4,0.3,south-southwest,4.2,No
2013/06/26,01:00,0.9,0.6,0.9,0.9,0.8,0.4,0.3,south,4.4,No
2013/06/26,01:10,0.9,0.6,0.9,0.9,0.8,0.4,0.3,south,4.6,No
2013/06/26,01:20,0.9,0.6,0.9,0.9,0.8,0.4,0.3,south,4.5,No
2013/06/26,01:30,0.9,0.6,0.9,0.9,0.8,0.4,0.3,south-southwest,5.4,No
2013/06/26,01:40,0.9,0.6,0.9,0.9,0.8,0.4,0.3,south-southwest,5.2,No
2013/06/26,01:50,0.9,0.7,0.9,0.9,0.8,0.4,0.3,south,4.9,No
2013/06/26,02:00,0.9,0.7,0.9,0.9,0.8,0.4,0.3,south,4.9,No
2013/06/26,02:10,0.9,0.6,0.9,0.9,0.8,0.4,0.3,south-southwest,4.5,No
2013/06/26,02:20,0.9,0.6,0.9,0.9,0.8,0.4,0.3,south-southwest,5.1,No
2013/06/26,02:30,0.9,0.6,0.9,0.9,0.8,0.4,0.3,south-southwest,5.0,No
2013/06/26,02:40,0.9,0.6,0.9,0.9,0.8,0.4,0.3,south-southwest,5.5,No
2013/06/26,02:50,0.9,0.6,0.9,0.9,0.8,0.4,0.3,south-southwest,5.3,No
2013/06/26,03:00,0.9,0.6,0.9,0.9,0.8,0.4,0.3,south-southwest,4.7,No
2013/06/26,03:10,0.9,0.6,0.9,0.9,0.8,0.4,0.3,south-southwest,4.2,No
2013/06/26,03:20,0.9,0.6,0.9,0.9,0.8,0.4,0.3,south-southwest,4.9,No
2013/06/26,03:30,0.9,0.6,0.9,0.9,0.8,0.4,0.3,south-southwest,5.5,No
2013/06/26,03:40,0.9,0.6,0.9,0.9,0.8,0.4,0.3,south-southwest,6.7,No
2013/06/26,03:50,0.9,0.6,0.9,0.9,0.8,0.4,0.3,south-southwest,5.6,No
2013/06/26,04:00,0.9,0.6,0.9,0.9,0.8,0.4,0.3,south-southwest,6.1,No
2013/06/26,04:10,0.9,0.6,0.9,0.9,0.8,0.4,0.3,south,5.9,No
2013/06/26,04:20,0.9,0.6,0.9,0.9,0.8,0.4,0.3,south,6.2,No
2013/06/26,04:30,0.9,0.6,0.9,0.9,0.8,0.4,0.3,south,5.5,No
2013/06/26,04:40,0.9,0.6,0.9,0.9,0.8,0.4,0.3,south,4.8,No
2013/06/26,04:50,0.9,0.6,0.9,0.9,0.8,0.4,0.3,south,4.5,No
2013/06/26,05:00,0.9,0.6,0.9,0.9,0.8,0.4,0.3,south,4.6,No
2013/06/26,05:10,0.9,0.6,0.9,0.9,0.8,0.4,0.3,south,4.2,No
2013/06/26,05:20,0.9,0.6,0.9,0.9,0.8,0.4,0.3,south-southwest,4.7,No
2013/06/26,05:30,0.9,0.6,0.9,0.9,0.8,0.4,0.3,south,4.6,No
2013/06/26,05:40,0.9,0.6,0.9,0.9,0.8,0.4,0.3,south,5.0,No
2013/06/26,05:50,0.9,0.6,0.9,0.9,0.8,0.4,0.3,south-southwest,4.8,No
2013/06/26,06:00,0.9,0.6,0.9,0.9,0.8,0.4,0.3,south-southwest,4.7,No
2013/06/26,06:10,0.9,0.6,0.9,0.9,0.8,0.4,0.3,south-southwest,5.4,No
2013/06/26,06:20,0.9,0.6,0.9,0.9,0.8,0.4,0.3,south-southwest,5.3,No
2013/06/26,06:30,0.9,0.6,0.9,0.9,0.8,0.4,0.3,south-southwest,5.8,No
2013/06/26,06:40,0.9,0.6,0.9,0.9,0.8,0.4,0.3,south,5.0,No
2013/06/26,06:50,0.9,0.7,0.9,0.9,0.8,0.4,0.3,south,4.6,No
2013/06/26,07:00,0.9,0.7,0.9,0.9,0.8,0.4,0.3,south,5.8,No
2013/06/26,07:10,0.9,0.7,0.9,0.9,0.8,0.4,0.3,south,6.4,No
2013/06/26,07:20,0.9,0.7,0.9,0.9,0.8,0.4,0.3,south-southwest,6.0,No
2013/06/26,07:30,0.9,0.7,0.9,0.9,0.8,0.4,0.3,south,6.2,No
2013/06/26,07:40,0.9,0.7,0.9,0.9,0.8,0.4,0.3,south,6.3,No
2013/06/26,07:50,0.9,0.7,0.9,0.9,0.8,0.4,0.3,south-southwest,7.0,No
2013/06/26,08:00,0.9,0.7,0.9,0.9,0.8,0.4,0.3,south-southwest,7.8,No
2013/06/26,08:10,0.9,0.7,0.9,0.9,0.8,0.4,0.3,south-southwest,7.1,No
2013/06/26,08:20,0.9,0.7,0.9,0.9,0.8,0.4,0.3,south,6.4,No
2013/06/26,08:30,0.9,0.7,0.9,0.9,0.8,0.4,0.3,south-southwest,6.3,No
2013/06/26,08:40,0.9,0.7,0.9,0.9,0.8,0.4,0.3,south,6.4,No
2013/06/26,08:50,0.9,0.7,0.9,0.9,0.8,0.4,0.3,south,6.8,No
2013/06/26,09:00,0.9,0.7,0.9,0.9,0.8,0.4,0.3,south-southwest,7.0,No
2013/06/26,09:10,0.9,0.7,0.9,0.9,0.8,0.4,0.3,south,7.2,No
2013/06/26,09:20,0.9,0.7,0.9,0.9,0.8,0.4,0.3,south,7.5,No
2013/06/26,09:30,0.9,0.7,0.9,0.9,0.8,0.4,0.3,south,7.3,No
2013/06/26,09:40,0.9,0.7,0.9,0.9,0.8,0.4,0.3,south,6.7,No
2013/06/26,09:50,0.9,0.7,0.9,0.9,0.8,0.4,0.3,south,7.0,No
2013/06/26,10:00,0.9,0.7,0.9,0.9,0.8,0.4,0.3,south,7.2,No
2013/06/26,10:10,0.9,0.7,0.9,0.9,0.8,0.4,0.3,south,8.5,No
2013/06/26,10:20,0.9,0.7,0.9,0.9,0.8,0.4,0.3,south,7.7,No
2013/06/26,10:30,0.9,0.7,0.9,0.9,0.8,0.4,0.3,south,8.4,No
2013/06/26,10:40,0.9,0.7,0.9,0.9,0.8,0.4,0.3,south,7.9,No
2013/06/26,10:50,0.9,0.7,0.9,0.9,0.8,0.4,0.3,south,8.5,No
2013/06/26,11:00,0.9,0.7,0.9,0.9,0.8,0.4,0.3,south,8.5,No
2013/06/26,11:10,0.9,0.7,0.9,0.9,0.8,0.4,0.3,south,9.6,No
2013/06/26,11:20,0.9,0.7,0.9,0.9,0.8,0.4,0.3,south,9.5,No
2013/06/26,11:30,0.9,0.7,0.9,0.9,0.8,0.4,0.3,south,9.5,Yes
2013/06/26,11:40,0.9,0.7,0.9,0.9,0.8,0.4,0.3,south,9.4,No
2013/06/26,11:50,0.9,0.7,0.9,0.9,0.8,0.4,0.3,south-southwest,7.3,No
2013/06/26,12:00,0.9,0.7,0.9,0.9,0.8,0.4,0.3,south-southwest,7.4,No
2013/06/26,12:10,0.9,0.7,0.9,0.9,0.8,0.4,0.3,south,7.3,Yes
2013/06/26,12:20,0.9,0.7,0.9,0.9,0.8,0.4,0.3,south,7.5,Yes
2013/06/26,12:30,0.9,0.7,0.9,0.9,0.8,0.4,0.3,south,7.7,Yes
2013/06/26,12:40,0.9,0.7,0.9,0.9,0.8,0.4,0.3,south,9.3,Yes
2013/06/26,12:50,0.9,0.7,0.9,0.9,0.8,0.4,0.3,south,8.6,Yes
2013/06/26,13:00,0.9,0.7,0.9,0.9,0.8,0.4,0.3,south,7.8,Yes
2013/06/26,13:10,0.9,0.7,0.9,0.9,0.8,0.4,0.3,south,8.9,Yes
2013/06/26,13:20,0.9,0.7,0.9,0.9,0.8,0.4,0.3,south,9.1,Yes
2013/06/26,13:30,0.9,0.7,0.9,0.9,0.8,0.4,0.3,south,8.9,Yes
2013/06/26,13:40,0.9,0.7,0.9,0.9,0.8,0.4,0.3,south,8.8,Yes
2013/06/26,13:50,0.9,0.7,0.9,0.9,0.8,0.4,0.3,south,8.1,Yes
2013/06/26,14:00,0.9,0.7,0.9,0.9,0.8,0.4,0.3,south,7.9,Yes
2013/06/26,14:10,0.9,0.7,0.9,0.9,0.8,0.4,0.3,south-southwest,6.9,Yes
2013/06/26,14:20,0.9,0.7,0.9,0.9,0.8,0.4,0.3,south,6.7,Yes
2013/06/26,14:30,0.9,0.7,0.9,0.9,0.8,0.4,0.3,south,6.7,Yes
2013/06/26,14:40,0.9,0.7,0.9,0.9,0.8,0.4,0.3,south,6.2,Yes
2013/06/26,14:50,0.9,0.7,0.9,0.9,0.8,0.4,0.3,south,6.4,Yes
2013/06/26,15:00,0.9,0.7,0.9,0.9,0.8,0.4,0.3,south,6.6,Yes
2013/06/26,15:10,0.9,0.6,0.9,0.9,0.8,0.4,0.3,south-southeast,4.6,Yes
2013/06/26,15:20,0.9,0.6,0.9,0.9,0.8,0.4,0.3,south,7.0,Yes
2013/06/26,15:30,0.9,0.6,0.9,0.9,0.8,0.4,0.3,south,8.6,Yes
2013/06/26,15:40,0.9,0.6,0.9,0.9,0.8,0.4,0.3,south,8.3,Yes
2013/06/26,15:50,0.9,0.6,0.9,0.9,0.8,0.4,0.3,south,7.5,Yes
2013/06/26,16:00,0.9,0.6,0.9,0.9,0.8,0.4,0.3,south,7.8,Yes
2013/06/26,16:10,0.9,0.6,0.9,0.9,0.8,0.4,0.3,south,7.6,Yes
2013/06/26,16:20,0.9,0.6,0.9,0.9,0.8,0.4,0.3,south-southwest,6.7,Yes
2013/06/26,16:30,0.9,0.6,0.9,0.9,0.8,0.4,0.3,south-southwest,5.7,Yes
2013/06/26,16:40,0.9,0.6,0.9,0.8,0.8,0.4,0.3,south-southwest,4.4,Yes
2013/06/26,16:50,0.9,0.6,0.9,0.8,0.8,0.4,0.3,south,3.4,Yes
2013/06/26,17:00,0.9,0.6,0.9,0.8,0.8,0.4,0.3,south,3.3,Yes
2013/06/26,17:10,0.9,0.6,0.9,0.8,0.8,0.4,0.3,south-southeast,4.2,Yes
2013/06/26,17:20,0.9,0.6,0.9,0.8,0.8,0.4,0.3,south-southeast,3.2,Yes
2013/06/26,17:30,0.9,0.6,0.9,0.8,0.8,0.4,0.3,southeast,3.2,Yes
2013/06/26,17:40,0.9,0.6,0.9,0.8,0.8,0.4,0.3,southeast,3.1,Yes
2013/06/26,17:50,0.9,0.6,0.9,0.8,0.8,0.4,0.3,southeast,3.2,Yes
2013/06/26,18:00,0.9,0.6,0.9,0.8,0.8,0.4,0.3,east-southeast,2.1,Yes
2013/06/26,18:10,0.9,0.6,0.9,0.8,0.8,0.4,0.3,east,1.6,Yes
2013/06/26,18:20,0.9,0.6,0.9,0.8,0.8,0.4,0.3,east,2.0,Yes
2013/06/26,18:30,0.9,0.6,0.9,0.8,0.8,0.4,0.3,east-northeast,2.1,Yes
2013/06/26,18:40,0.9,0.6,0.9,0.8,0.8,0.4,0.3,east-northeast,2.1,Yes
2013/06/26,18:50,0.9,0.6,0.9,0.8,0.8,0.4,0.3,east,1.8,Yes
2013/06/26,19:00,0.9,0.6,0.9,0.8,0.8,0.4,0.3,east-northeast,3.5,Yes
2013/06/26,19:10,0.9,0.6,0.9,0.8,0.8,0.4,0.3,east-northeast,4.0,Yes
2013/06/26,19:20,0.9,0.6,0.9,0.8,0.8,0.4,0.3,northeast,4.7,Yes
2013/06/26,19:30,0.9,0.6,0.9,0.8,0.8,0.4,0.3,northeast,6.6,Yes
2013/06/26,19:40,0.9,0.6,0.9,0.8,0.8,0.4,0.3,northeast,6.0,Yes
2013/06/26,19:50,0.9,0.6,0.9,0.8,0.8,0.4,0.3,northeast,5.7,Yes
2013/06/26,20:00,0.9,0.6,0.9,0.8,0.8,0.4,0.3,northeast,6.3,Yes
2013/06/26,20:10,0.9,0.6,0.9,0.8,0.8,0.4,0.3,northeast,6.2,Yes
2013/06/26,20:20,0.9,0.6,0.9,0.8,0.8,0.4,0.3,northeast,6.7,Yes
2013/06/26,20:30,0.9,0.6,0.9,0.8,0.8,0.4,0.3,northeast,7.2,Yes
2013/06/26,20:40,0.9,0.6,0.9,0.8,0.8,0.4,0.3,northeast,7.3,Yes
2013/06/26,20:50,0.9,0.6,0.9,0.8,0.8,0.4,0.3,northeast,6.6,Yes
2013/06/26,21:00,0.9,0.6,0.9,0.8,0.8,0.4,0.3,northeast,6.1,Yes
2013/06/26,21:10,0.9,0.6,0.9,0.8,0.8,0.4,0.3,east-northeast,5.5,Yes
2013/06/26,21:20,0.9,0.6,0.9,0.8,0.8,0.4,0.3,northeast,4.7,Yes
2013/06/26,21:30,0.9,0.6,0.9,0.8,0.8,0.4,0.3,northeast,4.7,Yes
2013/06/26,21:40,0.9,0.6,0.9,0.8,0.8,0.4,0.3,north,4.7,Yes
2013/06/26,21:50,0.9,0.6,0.9,0.8,0.8,0.4,0.3,north,5.2,Yes
2013/06/26,22:00,0.9,0.6,0.9,0.8,0.8,0.4,0.3,north-northwest,6.3,No
2013/06/26,22:10,0.9,0.6,0.9,0.8,0.8,0.4,0.3,north-northwest,6.9,Yes
2013/06/26,22:20,0.9,0.6,0.9,0.8,0.8,0.4,0.3,north,8.4,Yes
2013/06/26,22:30,0.9,0.6,0.9,0.8,0.8,0.4,0.3,north,7.3,Yes
2013/06/26,22:40,0.9,0.6,0.9,0.8,0.8,0.4,0.3,north,7.1,Yes
2013/06/26,22:50,0.9,0.6,0.9,0.8,0.8,0.4,0.3,north,7.1,Yes
2013/06/26,23:00,0.9,0.6,0.9,0.8,0.8,0.4,0.3,north-northwest,8.2,Yes
2013/06/26,23:10,0.9,0.6,0.9,0.8,0.8,0.4,0.3,north,8.3,No
2013/06/26,23:20,0.9,0.6,0.9,0.8,0.8,0.4,0.3,north,8.6,No
2013/06/26,23:30,0.9,0.6,0.9,0.8,0.8,0.4,0.3,north,8.6,No
2013/06/26,23:40,0.9,0.6,0.9,0.8,0.8,0.4,0.3,north,7.5,Yes
2013/06/26,23:50,0.9,0.6,0.9,0.8,0.8,0.4,0.3,north,7.7,Yes
